WORLDVIEW-1 (WV-1)

Last updated on Tue Oct 15 2024 00:02:24 GMT+0000 (Coordinated Universal Time)

1 32060U 07041A 24288.61071062 .00017296 00000+0 70184-3 0 9997 2 32060 97.3877 46.1771 0006293 217.1160 142.9644 15.24654554949911
UTC large
Height (km)
Speed (km/s)
/
Latitude / Longitude
Inclination (degrees)
Orbital Period (minutes)
Azimuth
Elevation
Range (km)
Doppler Factor

Next 0 passes for location: London (51.5072 / 0.1276)

Sorry there are no passes over London.